Location: Unspecified
(0.0000°N, 0.0000°E)
Time: 08:14:21
(UTC+00:00)

OTV 5 (USA 277) - Pass Details

Date: 15 February 2018
Orbit: 404 x 417 km, 43.0° (Epoch: 07 September)

Event Time Altitude Azimuth Distance (km) Brightness Sun altitude
Exits shadow 05:03:41 37° 233° (SW) 640 ? -17.2°
Maximum altitude 05:04:50 80° 313° (NW) 410 ? -16.9°
Drops below altitude 10° 05:08:05 10° 41° (NE) 1,444 ? -16.1°
Sets 05:10:10 0° 43° (NE) 2,301 ? -15.6°
